RH
57 55 51 66 90 97 94 99 102 100 101 106 105 104 104 101 101 104 101 99 100 99 100 103 99 92 95 97 92 91 93 88 84 88 90 87 89 93 90 87 89 89 86 81 81 85 86 86 88 92 97 101 100 99 100 97 97 101 104 103 102 102 102 101 100 101 102 100 99 102 103 100 98 101 104 101 100 104 104 101 99 98 99 100 101 103 101
61 56 47 55 72 77 83 94 97 95 98 101 103 106 107 103 102 103 99 97 100 102 101 103 102 100 100 95 89 91 98 100 98 99 98 92 88 90 88 86 87 90 93 91 87 87 89 87 88 89 92 97 100 101 102 100 99 101 102 102 104 103 101 101 101 102 102 100 99 101 103 101 99 103 105 100 95 98 101 101 99 98 98 100 102 103 99
65 65 57 53 55 58 68 82 91 97 100 97 99 105 108 106 104 103 101 99 100 102 103 105 104 103 104 99 90 86 88 95 100 100 96 90 86 86 84 82 83 85 88 90 87 85 86 85 85 85 85 89 94 98 98 98 101 103 102 101 102 101 100 101 102 102 101 101 101 100 101 101 101 102 102 98 95 94 93 97 101 102 102 102 102 102 100
63 68 68 62 57 52 53 59 72 87 95 93 95 100 104 106 107 107 105 101 100 101 103 106 104 102 105 103 96 89 83 82 83 81 78 76 74 75 75 75 77 78 79 81 80 79 79 79 79 81 82 82 85 88 91 94 98 102 105 104 102 102 102 100 101 101 99 101 103 101 100 101 101 101 100 102 104 101 95 97 101 102 103 103 102 102 101
65 64 68 69 66 61 55 52 57 70 80 85 89 94 97 102 107 109 108 104 102 102 100 101 102 100 103 104 99 94 90 85 78 73 71 71 71 72 74 74 77 79 78 76 75 75 76 77 77 78 80 81 80 81 84 87 90 94 101 105 104 104 103 102 102 102 101 101 101 101 101 101 100 101 101 101 102 101 98 98 100 100 100 100 99 99 99
79 69 68 70 69 68 65 62 60 62 67 71 76 78 81 90 99 104 107 107 106 106 104 104 105 103 101 102 99 95 94 92 87 85 85 85 83 81 82 83 84 84 83 82 82 82 81 79 77 75 76 78 79 81 83 82 81 83 88 95 100 104 105 103 102 101 101 102 101 102 103 102 100 102 102 100 99 100 100 100 100 100 100 100 99 99 100
96 84 76 69 67 71 73 72 69 66 64 64 64 60 58 64 74 84 96 103 103 103 102 102 106 106 102 101 101 101 102 101 99 99 97 93 91 91 93 95 94 92 92 93 91 89 85 80 76 72 69 69 71 74 78 79 78 76 77 80 87 94 99 102 103 103 102 102 101 103 105 104 102 101 101 100 101 101 101 100 101 102 101 100 100 101 102
101 98 91 76 69 73 78 81 80 77 73 69 65 60 56 54 56 63 75 83 85 86 88 91 98 99 96 93 92 95 100 104 104 105 101 97 97 99 101 102 100 98 99 98 95 94 89 80 74 69 67 65 63 61 61 62 65 68 70 71 74 78 84 90 96 100 103 103 102 103 104 103 103 103 103 102 102 102 102 100 101 102 101 100 100 101 101
101 106 106 94 83 77 77 83 90 90 86 77 69 67 67 63 60 61 66 72 74 74 75 84 96 102 100 95 91 91 97 102 105 107 105 103 104 102 101 101 100 99 99 98 101 102 97 89 83 77 70 66 61 53 46 45 49 53 57 59 60 62 66 72 78 84 89 95 97 99 101 101 102 102 103 103 102 101 101 100 100 101 101 99 99 100 100
99 103 105 103 101 93 82 79 85 93 96 90 79 73 73 72 71 71 72 75 78 76 72 73 80 87 89 85 82 87 94 101 106 110 111 111 111 110 107 104 102 102 103 106 108 104 99 97 98 93 81 68 61 56 53 52 51 48 47 47 47 48 50 55 60 65 69 73 77 81 85 89 93 95 98 100 101 100 100 99 98 97 96 95 96 97 98
103 104 103 103 107 106 98 87 81 83 89 91 85 79 75 75 79 83 86 88 89 87 83 77 73 72 69 67 72 79 86 92 98 101 103 104 105 107 106 102 99 98 102 110 114 110 104 102 102 99 90 78 71 69 67 65 61 55 50 45 41 40 42 44 47 51 52 53 55 58 61 64 68 72 74 78 81 83 85 85 85 86 85 85 86 86 85
105 105 104 103 104 106 106 103 96 88 84 84 85 83 79 79 83 90 96 99 99 99 98 91 86 83 77 78 87 89 84 84 87 88 88 87 86 89 93 93 93 91 92 99 105 105 104 105 105 104 101 94 89 88 86 82 76 71 65 58 49 43 41 40 41 44 45 45 44 47 50 51 51 52 52 53 55 57 59 60 61 62 63 63 63 64 64
104 105 104 103 104 103 103 103 103 99 95 92 88 82 80 85 90 94 98 102 104 106 106 103 103 104 99 100 106 103 94 92 93 90 89 87 82 80 81 83 86 88 89 93 95 91 89 91 94 98 100 99 97 97 99 101 99 93 84 76 69 61 55 51 49 49 50 49 48 47 48 49 49 49 48 46 45 45 46 47 48 48 49 50 50 51 52
102 102 101 100 98 99 102 103 101 99 101 101 96 89 88 89 88 87 92 101 107 110 109 107 107 108 106 105 109 108 105 103 100 96 95 92 88 85 82 80 81 82 82 86 90 90 86 83 82 83 85 85 84 83 86 93 103 107 103 97 90 83 77 72 68 65 65 64 62 60 56 53 52 53 54 53 51 50 49 48 48 48 48 47 47 47 48
99 101 101 98 92 88 92 99 102 102 100 100 101 102 101 97 88 81 80 84 92 99 105 106 107 106 103 101 100 100 99 97 94 94 93 92 90 88 86 85 85 86 86 87 91 95 98 98 96 93 90 88 85 82 80 82 88 95 101 103 102 99 95 90 86 86 86 85 83 79 74 67 62 61 61 61 61 61 59 56 56 56 56 55 53 52 52
93 101 100 95 90 87 86 89 96 100 99 98 99 102 104 102 100 96 90 83 81 82 87 92 97 99 98 96 94 93 91 89 88 88 88 88 89 89 90 91 92 93 95 98 101 103 106 107 107 106 104 100 96 92 89 86 86 87 88 91 96 99 100 98 97 97 97 95 91 87 84 81 76 73 71 70 69 68 66 64 64 65 65 64 63 61 60
79 89 90 87 89 91 91 91 94 97 97 95 97 101 104 105 104 103 101 98 95 92 90 91 93 94 96 96 97 97 98 97 96 95 93 93 93 94 95 98 100 100 100 101 103 104 105 104 104 104 103 102 101 100 95 91 90 89 87 86 87 89 90 91 91 91 89 88 86 85 84 83 80 78 78 78 78 77 75 73 72 72 71 70 71 71 69
63 69 73 76 80 85 88 91 95 100 101 99 99 101 104 108 109 106 104 105 104 102 101 100 99 99 98 98 97 99 101 102 103 103 102 100 98 97 97 97 99 99 98 97 96 96 96 95 95 94 93 91 91 91 88 85 83 82 81 80 79 79 80 80 80 80 79 79 78 79 79 79 78 78 78 79 81 82 82 82 82 81 78 75 76 77 75
54 57 59 62 67 70 74 78 83 89 95 98 100 101 101 103 105 104 103 105 105 102 102 102 101 101 101 100 100 99 100 101 103 104 105 103 101 100 98 97 97 96 94 93 92 92 91 90 88 87 86 85 83 82 80 78 75 73 71 70 70 70 70 70 70 71 71 71 70 71 71 71 72 72 73 75 78 79 81 84 87 88 83 76 75 77 76
49 51 53 55 58 60 62 64 67 71 77 82 88 92 94 96 98 98 99 101 101 99 100 99 98 97 98 98 99 100 101 101 101 102 101 99 97 95 93 92 92 92 90 89 88 87 87 86 84 82 79 78 77 75 73 69 66 63 61 59 58 58 59 59 60 61 61 60 60 60 60 60 61 62 62 63 65 67 68 70 74 77 74 68 66 66 66
41 43 46 49 51 53 54 55 56 58 61 64 67 71 75 80 86 90 93 95 97 98 98 97 95 96 96 96 95 95 96 95 94 92 90 87 85 83 81 81 81 80 79 79 78 78 77 75 72 71 69 67 65 63 62 59 57 54 52 50 49 49 49 50 50 51 51 51 51 51 51 51 52 53 53 53 55 57 56 56 58 61 60 57 55 55 55
35 38 41 43 45 46 47 49 51 52 53 54 55 56 59 62 65 69 72 75 79 82 83 84 84 84 84 83 81 79 77 76 75 74 72 70 69 68 67 67 67 67 66 65 65 65 64 62 61 60 58 57 56 54 53 52 50 48 46 45 45 45 45 46 46 45 44 44 43 44 44 44 45 45 46 46 47 49 49 48 50 52 51 50 50 50 51
34 35 38 39 40 41 42 45 47 49 49 50 51 51 52 54 54 55 56 57 58 60 61 62 63 63 64 64 64 63 62 61 61 61 60 60 59 59 59 59 58 57 57 57 56 56 55 54 53 52 51 50 49 47 46 44 43 42 41 40 39 40 40 41 42 42 41 40 39 39 39 39 39 40 40 39 39 40 42 43 44 46 45 45 46 46 48
33 34 35 36 37 37 38 40 41 42 43 44 45 46 47 48 48 48 48 49 50 50 51 51 52 53 53 53 53 54 53 52 52 53 53 53 53 54 53 53 52 51 51 51 50 50 49 48 46 45 43 42 40 38 35 33 31 31 32 33 34 35 36 36 37 37 37 37 36 35 34 33 33 34 34 33 32 33 35 35 36 38 39 39 40 40 42
34 33 33 32 32 33 34 35 36 37 39 39 40 41 42 42 43 44 44 45 45 46 47 48 48 48 48 48 48 49 48 48 49 48 48 48 48 49 48 48 47 46 46 45 45 44 42 41 39 36 33 30 28 27 26 25 25 26 26 27 28 29 30 31 31 30 29 29 27 26 24 23 24 25 26 26 26 26 28 30 31 32 33 34 34 35 35
39 38 37 35 34 33 33 33 33 34 34 35 36 37 37 37 38 38 38 39 40 40 40 41 41 41 41 41 41 41 41 41 42 42 43 42 42 42 41 41 41 40 39 39 37 36 34 31 29 26 25 24 23 23 23 23 23 23 23 23 23 23 23 24 25 26 25 24 22 20 18 18 17 18 18 19 20 19 21 23 24 25 26 27 28 29 30
41 41 41 41 40 38 37 36 36 34 33 32 32 32 33 33 33 34 34 34 34 34 34 34 34 34 34 33 33 33 34 34 34 35 35 35 35 34 35 35 35 34 34 32 31 29 26 24 22 21 21 21 21 21 20 20 19 19 20 20 19 19 18 19 20 21 21 20 19 17 16 15 15 16 17 18 19 18 18 19 21 22 22 22 23 25 26
43 43 42 42 42 41 41 41 41 40 39 38 37 36 35 34 32 32 32 31 30 30 29 29 29 28 28 28 27 27 27 28 28 27 27 27 27 27 27 27 26 26 25 24 22 21 19 17 17 17 17 17 17 17 16 16 15 15 16 16 16 15 15 15 16 16 16 15 14 13 13 14 15 16 16 16 17 17 16 16 17 19 20 21 21 22 23
43 43 43 43 42 42 41 41 41 41 41 41 42 42 41 41 40 39 38 36 35 33 31 30 29 28 27 26 26 26 26 25 24 24 24 24 24 24 23 23 22 21 20 18 17 16 15 14 15 15 15 15 15 14 14 14 13 13 13 13 13 13 13 13 14 14 14 13 12 12 14 15 16 16 16 16 16 16 16 15 15 16 17 18 18 18 19
42 43 44 45 45 44 42 41 40 40 40 40 40 41 41 41 41 42 41 41 40 39 38 37 36 34 34 33 32 30 29 28 27 27 28 27 27 26 25 24 23 21 20 19 17 16 15 15 14 15 15 14 13 13 12 11 11 11 11 11 11 11 11 12 13 13 13 12 12 13 14 15 15 15 15 16 16 16 15 15 14 14 14 15 16 17 17
43 45 46 47 47 45 43 42 41 40 39 39 38 38 37 38 38 38 38 38 38 38 38 38 37 37 37 36 36 34 33 33 33 33 32 31 30 28 27 26 24 23 21 20 19 17 16 15 14 14 14 12 11 10 10 9 10 10 10 10 10 10 11 11 12 12 13 12 12 13 14 14 14 14 14 14 15 15 15 15 15 15 15 14 16 17 17
46 47 48 49 48 46 45 44 43 41 40 38 37 36 35 35 34 34 34 34 34 34 34 34 34 35 35 34 34 33 33 33 34 33 33 32 30 29 28 26 25 23 22 20 18 16 15 13 13 12 12 11 10 9 9 9 9 10 10 10 10 11 11 11 12 12 13 12 12 12 13 13 13 13 13 14 14 15 16 16 16 16 15 15 15 16 16
48 48 48 48 47 46 44 43 42 41 39 37 36 35 34 33 32 31 31 30 30 29 30 29 29 30 30 30 30 30 30 31 31 31 31 30 29 28 27 26 24 22 20 17 16 14 12 11 10 10 10 10 10 11 11 11 11 11 11 12 12 12 12 12 12 12 12 12 12 12 12 13 13 13 13 14 14 14 15 15 15 15 14 13 14 14 14
44 44 44 44 43 42 40 38 37 37 36 34 33 33 32 31 30 29 28 28 27 26 26 26 25 25 26 26 27 28 28 28 28 28 28 28 28 27 26 24 22 20 18 15 13 12 11 10 10 10 11 12 13 13 13 13 13 13 12 12 12 12 12 12 12 12 12 12 12 12 12 11 11 11 11 11 11 12 12 12 12 13 12 11 12 12 11
40 40 40 39 38 37 36 35 34 34 34 33 32 31 30 29 28 28 27 26 26 25 25 24 23 23 24 25 26 27 27 27 27 28 28 28 28 27 26 24 21 19 16 14 12 11 11 10 11 12 13 14 15 15 14 14 13 12 11 11 11 10 10 10 10 10 10 10 10 10 9 9 9 9 9 10 10 10 10 10 10 11 11 10 10 10 10
39 39 38 37 37 36 35 34 34 33 33 32 31 30 29 28 28 27 27 26 26 25 24 24 23 23 24 25 26 26 27 27 28 29 29 29 28 27 26 23 20 16 14 13 12 12 12 12 13 14 16 16 16 15 14 13 12 11 10 10 9 9 9 8 8 8 8 8 8 8 8 8 8 8 8 8 8 8 8 8 9 9 9 9 9 10 10
39 40 39 38 37 37 36 36 35 34 33 33 32 31 30 29 28 28 27 26 26 25 24 24 23 23 24 25 26 27 27 28 29 30 31 30 29 28 25 21 17 14 13 13 14 15 16 16 17 17 17 17 16 15 13 12 11 10 9 9 8 8 8 8 8 8 8 8 8 8 8 8 8 8 8 8 8 8 7 7 7 8 8 8 9 9 9
40 40 39 38 38 38 37 37 37 36 35 35 34 33 32 31 30 29 28 27 26 26 25 24 24 24 25 26 27 28 29 30 31 32 32 31 30 28 24 20 16 14 14 15 17 20 21 20 19 19 17 16 15 14 12 11 10 9 9 9 9 9 9 9 10 10 10 10 10 10 10 10 10 10 10 9 9 9 8 7 7 7 7 7 7 8 9
38 37 36 35 35 36 35 35 35 35 35 35 35 34 33 32 31 30 29 28 27 26 25 24 24 25 26 28 29 30 31 32 33 33 33 31 30 27 23 18 16 15 16 18 21 24 24 23 21 19 17 15 14 12 11 11 10 10 10 11 11 12 11 11 11 11 11 12 12 12 13 13 13 13 12 11 10 10 9 8 8 8 8 8 8 8 8
36 34 33 32 32 32 33 34 34 33 33 33 33 33 33 33 32 31 31 30 29 28 27 25 25 26 27 30 31 32 33 34 34 33 32 31 29 26 22 18 17 17 19 22 25 26 25 24 22 19 16 15 13 12 11 11 11 12 13 13 13 13 13 12 12 12 12 13 14 14 15 15 15 15 14 13 12 10 10 9 9 8 8 8 8 8 8
33 32 30 29 29 29 30 31 32 32 32 31 31 31 31 32 33 33 32 31 30 30 28 26 25 26 27 30 32 33 34 35 35 34 33 32 30 26 22 19 18 19 21 25 27 27 26 24 22 19 17 15 13 12 12 12 13 13 13 13 13 13 13 13 13 13 13 14 15 16 17 17 17 17 16 14 13 11 10 9 9 9 9 9 8 8 9
30 29 29 28 27 28 29 31 32 33 32 30 29 28 28 29 30 32 32 32 31 31 29 27 26 26 27 28 30 32 33 35 36 36 35 33 31 27 23 20 19 20 22 25 28 28 27 25 22 19 17 15 14 13 14 15 15 14 14 14 14 14 14 14 15 15 16 17 17 18 19 19 18 18 17 15 14 12 11 10 9 9 9 9 9 9 9
29 28 28 27 27 27 29 32 34 34 34 32 31 29 27 26 26 28 30 32 32 31 29 28 27 26 26 27 29 31 33 35 36 37 37 35 32 28 25 22 20 19 21 24 28 29 28 26 23 20 17 15 14 15 16 16 16 16 16 16 17 17 17 17 17 17 18 19 19 20 21 21 20 19 18 16 14 13 11 11 10 10 10 10 10 10 10
31 29 28 28 27 27 29 33 35 36 35 35 34 32 30 27 24 23 25 28 31 32 31 29 27 27 27 27 28 30 32 35 37 38 38 37 34 30 26 23 21 20 20 23 27 30 30 28 25 22 19 16 15 17 18 18 18 18 18 18 19 20 20 20 21 21 21 21 21 21 22 22 22 21 18 16 14 13 12 11 11 10 11 11 11 11 11
34 31 28 27 26 27 29 33 36 37 37 37 36 35 33 31 29 26 24 23 25 28 30 31 30 28 28 28 29 30 31 33 36 38 39 39 37 34 29 25 23 21 20 22 25 30 32 30 27 24 21 18 17 18 20 20 21 20 20 20 21 22 23 23 23 23 24 24 23 23 23 23 23 22 20 18 16 14 13 12 12 12 11 12 12 12 13
35 32 29 26 26 28 30 33 35 38 39 38 38 37 35 34 34 33 30 26 23 23 25 29 31 31 30 29 29 30 31 32 34 36 38 39 38 36 32 28 25 22 21 21 24 28 32 33 30 27 24 21 19 20 22 22 23 23 23 22 22 24 25 26 26 26 27 27 26 25 25 24 24 23 21 20 18 16 15 14 14 14 14 15 15 15 16
32 31 28 26 25 27 30 32 35 38 40 40 40 39 37 37 37 37 36 33 29 24 22 24 27 30 32 32 31 31 31 32 33 35 37 38 38 36 34 31 27 24 22 22 23 27 32 35 34 32 28 24 22 21 23 24 24 24 24 25 25 26 27 28 29 30 31 31 29 28 26 25 25 25 24 22 20 19 18 17 16 17 18 18 19 20 21
30 29 27 25 24 25 28 30 33 37 40 41 41 39 38 37 38 39 39 39 36 32 26 22 22 25 29 32 33 32 31 32 32 34 36 38 39 38 36 34 31 27 25 24 24 26 30 34 36 36 33 28 25 23 23 24 26 26 26 27 28 29 29 30 32 33 35 36 35 32 30 28 27 27 27 25 24 22 21 20 20 20 20 21 22 23 25
30 29 28 27 25 25 26 28 32 36 39 41 41 40 38 38 38 40 40 40 40 37 33 28 23 22 24 28 32 33 33 32 32 33 34 37 38 39 39 37 35 32 29 26 25 25 27 31 35 38 37 34 30 26 24 24 26 28 29 29 29 30 32 33 34 35 38 40 40 38 35 33 31 30 30 29 28 26 24 24 23 23 23 23 24 25 26
30 29 29 29 28 27 27 28 31 34 38 40 40 39 38 37 38 39 40 40 39 39 39 36 31 25 22 23 27 31 33 33 32 32 33 35 37 39 40 40 39 37 34 31 28 26 26 29 33 37 39 39 36 32 28 26 26 27 29 30 30 30 31 34 35 37 38 41 43 43 41 38 35 34 34 33 32 30 28 26 26 26 26 26 26 27 27
30 30 31 31 31 31 30 30 30 33 37 40 40 39 37 36 36 37 38 39 39 39 40 40 37 32 26 22 22 25 29 32 33 33 33 34 35 37 39 41 41 40 39 37 34 30 28 27 29 34 38 41 41 38 35 32 29 27 29 31 32 32 31 32 35 37 38 40 41 43 44 43 41 38 37 36 36 35 33 30 28 27 27 28 28 28 29
32 33 33 33 34 34 34 33 32 33 35 39 40 38 36 35 34 35 36 38 39 39 39 40 40 37 32 26 22 21 24 27 30 32 33 34 35 36 37 39 40 41 41 40 39 37 33 29 28 29 33 39 43 44 43 39 35 31 29 30 32 34 34 33 33 34 38 40 42 43 44 45 45 44 42 40 40 39 38 37 34 32 29 28 28 28 29
Wind_Speed
51 52 51 50 52 53 52 51 51 50 49 48 48 47 46 46 48 50 48 44 45 48 47 46 47 47 47 46 43 42 40 39 40 41 42 43 45 47 49 50 51 52 52 52 51 50 49 48 48 49 50 52 53 54 56 58 60 63 66 68 68 67 67 66 65 65 63 58 54 54 54 55 56 58 61 61 58 56 56 55 54 54 53 50 51 57 62
51 52 51 52 54 55 54 54 54 53 51 50 49 48 48 48 48 50 49 47 48 50 49 48 51 52 53 52 48 41 36 34 37 42 45 46 47 48 50 50 51 51 52 52 52 52 52 51 51 51 51 51 53 54 56 58 60 62 63 67 69 70 70 70 67 66 67 68 69 66 63 62 63 64 67 67 63 60 58 54 50 46 42 42 48 56 60
51 52 52 52 53 54 55 56 56 55 55 54 53 52 52 50 48 48 50 51 53 54 54 54 55 55 55 55 53 49 45 41 42 47 49 48 49 51 52 53 53 54 55 56 56 57 57 57 56 55 54 54 54 55 57 59 61 62 63 64 67 69 71 71 71 71 71 71 73 74 73 73 72 72 73 72 71 71 72 70 67 61 57 58 62 66 67
50 52 54 53 54 54 54 55 56 57 58 58 57 56 55 54 53 53 53 54 54 56 58 58 58 57 57 57 55 54 54 52 52 55 55 53 53 53 54 55 56 57 59 60 60 60 60 60 59 59 58 58 59 59 60 61 62 63 64 65 67 68 70 70 72 74 76 77 78 78 78 76 76 76 77 76 77 78 77 77 77 76 73 72 70 67 64
50 51 53 54 55 54 53 54 56 58 59 60 60 59 59 58 58 57 57 58 58 58 59 60 60 60 61 60 59 58 58 58 58 58 57 57 57 57 58 58 59 60 61 61 61 61 61 61 61 61 61 61 62 62 63 63 64 64 65 66 67 68 70 71 72 73 75 77 79 80 80 79 77 76 76 76 77 78 77 76 75 72 68 64 61 57 53
52 52 53 54 55 54 53 54 56 58 59 60 61 61 61 61 61 61 60 61 61 61 61 61 62 63 63 62 61 60 61 61 61 61 61 62 62 62 62 62 62 63 63 63 62 62 63 63 62 63 63 63 64 65 65 66 66 66 66 67 67 68 69 70 70 71 72 74 76 79 81 82 81 80 79 78 78 78 77 76 74 71 68 66 66 65 65
54 54 54 55 54 53 54 55 56 57 59 60 61 61 61 61 62 63 63 64 65 64 64 64 65 66 66 64 62 60 60 60 60 60 61 61 61 62 62 62 62 62 62 63 65 65 66 66 66 65 65 66 66 66 67 68 68 67 67 68 69 70 71 72 71 71 72 73 75 77 79 82 83 84 84 83 82 82 81 81 81 81 82 83 84 84 85
56 55 56 56 54 54 55 56 57 58 59 60 60 60 59 59 60 61 63 65 67 67 67 67 67 68 68 67 66 64 63 62 61 61 60 58 56 55 55 56 57 58 59 60 62 64 66 68 68 68 68 68 69 69 69 69 69 69 69 69 70 71 73 74 75 75 76 77 77 78 79 80 81 83 84 85 85 86 87 87 87 87 88 89 89 90 91
58 57 58 58 56 57 57 56 57 58 60 60 60 59 59 59 58 59 61 63 65 67 67 67 68 70 71 70 69 67 67 67 67 67 66 64 62 60 58 57 58 60 60 58 59 63 66 66 67 68 69 70 70 69 68 67 67 69 70 71 72 73 74 76 77 78 79 80 81 81 82 82 82 83 84 85 86 88 89 90 91 92 93 93 94 94 95
60 60 60 59 59 59 59 59 59 59 60 61 60 59 59 58 58 58 60 61 63 64 65 66 67 69 70 69 68 67 67 67 68 69 68 68 69 68 68 67 66 67 66 63 63 66 65 63 65 69 71 71 70 68 67 67 67 67 68 69 69 70 72 75 77 79 81 82 83 84 85 85 85 86 87 87 88 88 89 90 91 92 93 94 95 96 96
62 62 61 61 61 62 61 62 61 60 61 61 61 60 59 57 57 58 60 61 62 63 64 65 65 65 65 63 62 63 64 66 67 68 68 68 69 69 70 70 69 69 69 67 69 70 68 66 69 72 74 74 72 70 69 69 69 69 68 69 69 68 69 71 73 75 78 79 81 83 85 86 86 88 89 89 90 91 91 92 93 93 94 94 95 96 97
65 65 64 64 65 64 64 64 64 63 63 62 61 61 59 58 58 59 60 61 62 63 65 64 63 64 63 60 61 64 64 64 65 65 66 67 67 67 68 68 68 68 68 68 70 72 72 72 74 76 77 76 74 72 72 71 71 71 71 71 71 71 70 70 71 72 74 75 75 76 78 80 81 82 84 85 86 86 87 88 89 90 90 91 91 91 92
68 69 68 68 68 67 66 66 65 64 64 64 64 62 60 60 61 61 61 61 62 63 65 63 63 64 64 62 64 67 66 65 65 66 66 66 66 67 67 67 68 68 69 69 71 72 73 73 74 76 77 77 75 74 73 73 73 74 74 74 74 74 73 73 72 72 73 74 74 74 75 76 76 77 79 80 80 81 81 82 83 83 84 84 84 84 85
72 72 71 72 72 70 69 68 68 67 66 66 65 64 63 64 65 64 63 62 63 64 64 64 64 67 66 65 66 68 68 68 68 68 68 68 69 69 69 69 69 70 70 71 73 74 74 74 74 75 76 76 76 75 74 73 74 75 76 76 76 76 76 76 76 76 76 77 77 78 78 77 76 77 79 80 80 80 81 82 82 82 82 83 83 83 83
74 73 74 75 75 73 71 71 71 71 70 69 67 66 67 68 68 68 66 66 65 66 66 67 68 69 69 69 69 70 71 71 71 70 71 71 71 71 71 71 72 72 72 73 74 75 76 77 77 78 78 78 77 77 76 75 75 76 76 77 77 78 79 79 80 80 80 81 81 82 82 81 80 80 80 81 82 82 83 83 83 83 84 84 84 84 84
75 76 77 77 77 75 74 73 73 74 74 72 71 70 70 70 71 71 71 70 70 69 69 69 70 71 71 71 71 71 72 72 72 72 72 72 72 73 73 73 73 74 74 75 76 77 78 79 79 80 80 80 80 79 79 78 78 79 79 79 79 80 81 82 83 83 84 84 84 84 84 84 84 83 83 84 84 84 85 84 84 84 84 85 85 85 85
78 79 80 79 78 77 76 75 75 76 76 75 74 73 73 73 74 74 74 74 74 73 72 72 72 73 73 73 73 73 74 74 74 74 74 74 75 75 75 75 76 76 77 77 78 79 80 81 81 82 83 83 83 83 83 82 82 83 83 83 83 83 84 85 85 86 86 86 86 86 86 86 86 86 85 85 85 86 86 86 86 86 87 86 86 87 87
80 81 82 81 81 80 79 78 78 78 78 78 77 76 76 76 77 76 76 77 77 76 76 76 76 76 76 76 76 76 77 77 77 78 78 78 78 78 78 78 79 80 80 80 81 82 83 83 84 85 85 86 86 86 87 87 86 86 86 86 86 86 87 87 88 88 89 89 89 88 88 88 88 88 87 87 87 87 87 87 88 89 90 90 89 89 90
78 80 81 82 82 82 82 81 81 81 81 81 80 80 79 79 80 79 79 80 80 80 80 80 80 80 80 80 80 81 81 81 81 81 81 82 82 82 82 82 83 83 84 84 85 85 86 86 87 87 88 89 89 90 90 90 90 90 89 89 89 89 89 90 90 91 91 91 91 91 91 90 90 90 90 89 89 89 89 88 89 91 94 94 92 92 93
75 76 77 79 81 82 82 82 82 83 83 83 83 83 83 83 83 83 83 83 83 83 84 84 84 84 84 84 84 85 84 84 84 85 85 85 85 86 86 86 86 87 87 88 88 88 89 90 90 91 91 91 92 93 93 93 93 92 92 92 91 91 91 92 92 93 93 93 93 93 93 92 92 92 92 91 91 91 91 90 90 92 96 97 95 94 94
69 70 72 74 77 79 80 81 81 82 83 83 84 84 84 84 85 85 85 86 86 86 87 87 87 87 87 87 88 88 88 88 88 88 88 88 88 89 89 89 89 90 90 90 91 91 92 92 93 93 93 94 94 95 95 94 94 94 93 93 92 91 91 92 92 93 93 93 93 93 93 93 93 93 93 93 92 92 94 93 91 92 96 97 97 94 94
63 64 66 69 71 73 75 76 78 79 81 81 82 83 83 84 85 85 86 86 87 88 88 89 89 89 89 89 90 90 90 89 89 89 90 90 90 90 90 90 91 91 91 92 92 93 93 94 94 94 95 95 95 96 95 95 95 94 93 93 92 91 91 92 92 93 93 92 92 92 92 92 92 92 93 93 92 92 93 93 92 92 94 95 95 93 93
59 60 62 64 67 68 69 71 73 75 77 78 79 80 81 82 83 84 84 85 85 86 87 87 88 88 88 89 89 90 90 89 89 89 89 89 90 90 90 90 91 91 91 92 92 93 93 94 94 94 95 95 95 95 95 94 93 93 92 91 91 90 90 91 91 92 92 91 91 91 91 91 91 91 92 92 91 90 90 90 90 91 92 93 93 91 92
53 55 57 60 62 63 64 66 68 70 71 73 74 75 77 78 79 80 81 82 83 83 84 85 85 86 86 86 87 87 88 87 87 87 88 88 88 89 89 90 90 90 90 91 91 92 92 93 93 93 93 93 93 92 91 90 89 88 88 88 88 89 89 89 90 90 90 90 91 91 90 89 89 89 90 91 89 87 87 87 87 88 89 91 90 90 90
49 51 53 54 56 57 59 61 62 64 66 68 69 70 72 73 74 75 76 77 78 79 80 81 82 83 83 83 84 85 85 85 85 85 86 86 86 87 88 88 88 88 89 89 90 90 91 91 91 91 90 89 88 87 86 85 84 84 84 84 84 84 85 86 87 87 87 88 88 88 86 85 84 84 85 87 86 84 83 84 85 85 85 87 88 88 88
46 48 49 50 51 52 54 55 57 59 60 62 63 65 66 67 68 70 71 72 73 74 75 76 77 77 78 78 79 79 80 80 81 81 82 82 83 84 84 84 84 85 85 86 86 86 87 86 86 85 83 82 81 81 80 80 80 79 79 79 79 78 78 79 80 81 82 83 83 82 80 78 77 76 77 78 80 78 76 76 79 81 81 81 82 83 83
45 45 46 47 48 49 50 51 52 54 55 57 58 59 61 62 63 64 65 66 67 68 69 69 70 71 71 71 72 72 73 73 74 74 75 76 76 77 77 77 78 79 80 80 81 81 81 81 79 78 77 77 76 76 76 76 75 74 75 75 75 74 74 74 75 76 78 79 78 77 74 72 71 70 70 71 72 71 69 67 69 73 73 73 73 75 76
43 44 45 45 46 47 47 48 50 51 52 53 54 55 57 58 59 59 60 61 62 63 63 64 64 65 65 66 66 66 67 67 68 68 68 69 69 70 70 71 72 73 74 74 75 75 75 74 73 72 71 72 72 72 72 71 71 71 71 71 72 71 71 71 71 72 74 74 73 71 69 69 68 68 68 67 66 66 64 62 62 65 67 67 67 69 70
42 42 43 44 44 45 46 47 47 48 50 51 52 53 54 55 56 57 58 58 59 60 60 60 61 61 61 61 62 62 62 63 63 63 63 63 64 65 66 66 67 68 69 69 70 70 69 68 67 66 66 67 67 67 67 67 67 68 68 68 68 69 68 68 69 70 70 70 68 66 65 66 67 67 65 64 63 63 62 62 61 61 62 64 65 65 65
39 40 41 42 43 44 44 45 45 46 47 48 49 51 52 53 54 55 56 56 57 57 58 58 58 59 59 59 59 60 60 60 60 59 60 61 62 62 63 63 64 65 65 65 65 64 64 62 61 61 62 62 63 63 63 63 63 64 64 64 65 65 65 65 65 67 67 66 64 63 64 64 65 64 62 61 62 62 61 61 60 58 59 60 60 61 62
36 37 38 40 41 42 43 43 43 44 45 46 47 48 49 50 51 52 53 54 54 55 55 56 56 56 57 57 57 58 58 57 57 57 58 59 59 60 60 61 61 61 60 60 60 59 59 58 57 57 58 59 59 59 58 58 58 58 59 59 60 60 60 60 61 62 63 62 61 61 62 62 61 61 60 59 59 60 60 59 59 57 57 57 57 58 58
33 34 35 37 39 40 41 41 42 42 43 44 45 46 47 47 48 49 50 51 51 52 52 53 53 54 54 54 55 55 54 54 55 55 56 57 57 57 57 57 57 56 56 56 55 55 54 54 53 53 54 55 56 55 54 53 53 54 54 54 54 55 55 56 56 57 58 59 58 58 58 58 58 58 57 57 57 57 57 57 57 57 56 56 56 56 55
30 31 33 34 36 37 38 38 39 40 41 42 42 43 44 45 45 46 47 47 48 49 49 50 50 51 51 51 51 51 51 52 52 53 53 54 54 54 54 53 53 52 52 51 51 51 51 50 49 49 50 50 51 51 50 50 49 49 50 50 50 50 51 52 52 53 54 54 55 54 54 54 54 54 54 54 54 54 54 54 55 55 55 55 54 54 53
28 29 30 32 33 35 35 36 36 37 38 39 40 41 41 42 43 43 44 45 45 46 46 47 48 48 48 48 48 48 49 49 49 49 50 50 50 50 50 50 49 48 48 48 48 48 47 47 46 45 45 45 46 46 46 46 46 46 46 46 46 47 47 48 48 49 50 50 51 51 51 51 51 51 50 51 51 51 51 52 52 53 53 53 52 52 52
26 27 29 30 31 32 33 34 34 35 36 37 38 39 39 40 40 41 41 42 43 43 44 44 45 45 45 45 45 46 46 46 46 47 47 47 47 46 46 46 46 46 45 45 45 45 44 43 42 41 41 42 42 43 43 43 43 43 42 43 43 43 43 44 44 45 46 46 47 47 47 47 47 46 46 47 47 48 48 48 49 50 50 50 50 50 49
25 27 28 29 30 31 31 32 32 34 34 35 36 37 37 38 38 39 39 40 40 41 42 42 42 42 42 42 43 44 44 44 44 44 44 44 44 43 43 44 44 43 43 42 42 42 41 40 39 38 38 39 40 40 40 40 40 40 39 39 39 39 39 40 40 41 41 42 42 43 43 43 43 43 43 43 43 43 44 44 45 45 46 46 46 46 45
25 26 28 28 29 29 30 31 31 32 33 34 34 35 36 36 37 37 37 38 38 39 39 40 40 39 39 40 41 42 42 42 41 41 41 41 41 41 41 42 42 41 40 39 39 39 39 38 37 36 36 36 37 37 38 38 38 37 37 37 36 36 36 37 37 38 38 38 39 39 39 39 39 40 40 39 39 40 40 40 40 41 41 41 41 41 41
25 26 27 27 28 28 29 29 30 31 31 32 33 33 34 34 35 35 35 36 36 37 37 37 37 37 37 38 39 39 40 40 39 39 40 39 39 39 40 40 40 39 37 36 36 36 36 36 35 35 34 34 34 34 34 35 35 35 34 34 34 34 34 34 34 34 35 35 36 36 36 36 36 36 36 36 36 36 36 36 37 37 37 37 37 37 37
25 26 26 26 27 27 27 28 28 29 29 30 31 31 32 32 33 33 33 34 34 35 35 35 35 35 35 36 37 37 38 38 38 38 38 37 37 37 38 38 37 36 35 34 33 34 34 34 34 33 33 32 32 32 32 32 32 32 32 32 32 31 31 31 31 32 32 32 32 32 33 33 33 33 33 33 33 33 33 33 33 33 34 34 34 34 34
25 26 26 26 26 26 26 27 27 27 28 29 29 30 30 31 31 31 32 32 33 33 34 34 33 33 33 34 35 36 36 37 37 37 36 35 35 36 36 36 35 34 33 32 32 32 32 32 32 32 31 30 30 29 29 29 29 29 29 29 29 29 29 29 29 29 29 29 29 29 29 29 30 30 30 30 30 30 30 30 30 30 31 31 32 32 32
25 26 27 27 27 26 26 26 26 26 27 27 28 28 29 29 30 30 30 31 31 32 32 32 32 32 32 33 34 34 35 35 35 35 34 34 34 34 34 34 33 32 32 31 31 31 30 30 30 29 29 28 28 28 27 27 27 27 27 27 27 27 27 27 27 26 26 26 26 26 26 26 26 26 26 27 27 27 27 27 28 28 28 29 29 29 30
25 26 27 27 27 27 26 26 26 26 26 27 27 27 27 28 28 29 29 29 30 31 32 32 31 31 31 31 32 33 33 33 33 33 33 33 33 33 32 32 32 31 30 30 30 30 29 29 28 27 27 26 26 26 26 26 25 25 26 26 25 25 25 24 24 24 23 23 23 23 23 23 23 24 24 23 24 24 24 25 25 26 26 26 27 27 27
26 26 26 27 27 27 26 26 26 26 26 26 26 26 26 27 27 27 28 28 29 30 30 31 30 30 30 30 31 31 32 32 32 32 32 32 32 31 31 31 31 30 29 29 28 28 28 27 27 26 25 25 24 24 24 24 24 24 24 24 23 23 22 22 21 21 21 21 21 21 21 21 21 21 21 21 21 22 22 23 23 23 24 24 24 24 25
27 27 26 27 27 27 26 26 26 26 26 26 26 26 26 26 26 26 26 27 28 29 29 29 29 29 29 29 29 30 30 31 31 31 31 31 31 30 30 30 29 29 29 28 27 27 27 26 25 25 24 23 23 23 23 23 23 23 23 22 22 21 21 20 20 19 19 19 20 19 19 19 19 19 19 19 20 20 20 21 21 21 22 22 22 23 23
28 28 27 27 27 27 27 27 26 26 26 26 26 26 25 25 25 25 25 26 27 28 28 28 28 28 28 28 29 29 29 30 30 30 31 30 30 30 29 29 28 28 28 28 27 26 25 25 24 23 23 23 22 22 22 21 22 22 22 21 21 20 20 19 19 19 19 19 19 18 18 18 18 18 18 18 18 19 19 20 20 20 20 20 21 21 22
29 29 28 27 26 27 27 27 27 27 27 27 27 26 26 25 24 25 25 25 26 27 27 27 28 28 28 28 28 28 29 29 30 30 30 30 29 29 29 28 28 27 28 27 26 25 25 24 23 23 22 22 22 21 21 21 21 21 21 21 20 20 20 19 19 18 18 18 18 18 18 18 18 18 18 17 18 18 18 19 19 20 20 20 20 20 21
29 30 29 28 27 26 27 27 27 27 27 27 27 27 26 25 25 25 25 25 25 26 26 27 28 28 27 27 27 28 28 28 29 29 29 29 29 28 28 28 27 27 27 27 26 25 24 24 23 23 22 22 21 21 21 21 20 20 20 20 20 20 20 19 18 18 18 18 18 18 17 17 17 18 18 18 18 18 18 19 19 20 20 20 20 20 21
30 30 30 30 28 27 27 27 27 27 27 27 28 28 27 26 25 25 25 25 25 25 26 26 27 27 27 27 27 27 27 28 28 28 28 28 28 28 28 28 27 27 26 26 26 26 25 24 23 23 22 22 21 21 21 20 20 20 20 20 20 20 19 19 18 18 18 18 18 18 18 17 17 18 18 18 18 18 19 19 20 20 20 21 21 22 22
30 30 31 31 30 29 28 27 27 27 27 27 28 28 27 26 26 25 25 25 25 25 25 26 26 27 27 27 27 27 27 27 27 27 28 28 28 28 28 28 28 27 26 26 26 26 25 25 24 23 22 22 22 21 21 21 20 19 19 19 19 19 19 19 19 18 18 18 18 18 18 18 18 18 18 19 19 19 20 20 21 21 21 22 22 23 24
30 30 30 31 31 31 29 28 27 27 27 28 29 29 28 27 26 26 26 26 26 25 25 25 26 26 26 27 27 27 27 27 27 27 27 27 28 28 28 28 28 27 27 26 26 26 25 25 25 24 23 23 22 22 21 21 21 20 20 19 19 19 19 19 19 19 19 18 18 18 19 19 19 19 19 20 20 21 21 21 21 22 22 23 23 23 24
30 30 30 30 31 31 31 30 28 27 27 29 30 30 29 28 27 27 26 26 26 26 26 26 26 26 26 27 27 28 28 28 27 27 27 27 27 28 28 28 28 27 27 27 27 26 26 26 25 25 25 24 23 22 21 21 21 21 21 20 20 19 19 19 19 19 19 19 19 19 19 19 20 20 20 20 21 21 22 22 22 23 23 23 24 24 25
29 30 30 30 31 31 32 32 31 29 28 29 30 31 31 30 29 28 27 27 27 26 26 27 27 27 27 27 27 28 28 28 28 27 27 27 27 27 28 28 28 28 27 27 27 27 27 26 26 26 25 25 24 23 23 22 22 22 21 21 21 21 20 20 20 20 20 20 20 20 20 20 20 20 21 21 21 21 22 22 23 23 24 24 25 25 26
Wind_Direction
240 241 240 238 238 238 238 238 238 238 237 237 237 237 238 238 238 239 239 241 246 247 244 242 242 241 240 241 241 242 245 246 247 245 242 241 241 242 243 244 246 247 249 249 249 249 248 247 247 248 248 248 249 249 249 248 248 247 247 248 249 249 249 250 251 252 252 252 254 257 260 260 260 261 263 265 269 272 274 276 279 281 282 282 281 280 280
240 242 242 240 239 239 239 239 240 240 240 239 238 238 238 238 239 241 240 238 240 244 244 244 246 246 246 245 243 241 240 242 245 246 244 242 243 245 246 246 247 247 247 249 249 249 249 249 249 248 248 249 249 248 249 249 248 247 248 248 248 248 249 248 249 251 253 252 253 254 256 258 261 264 266 267 267 266 267 270 272 270 268 269 272 276 279
239 241 243 242 241 241 240 240 241 241 241 241 240 239 239 239 238 240 242 240 241 244 245 245 247 248 249 249 248 244 239 237 240 244 245 246 247 248 249 250 250 250 251 251 252 252 252 252 251 250 249 249 249 248 248 249 249 248 248 248 248 248 249 248 247 248 249 252 254 255 257 259 261 263 265 266 266 266 267 268 268 266 265 267 271 273 276
239 240 242 243 242 242 241 241 242 242 243 243 242 241 241 240 239 239 240 242 242 244 246 247 247 248 249 251 251 251 248 246 246 248 250 251 252 253 255 255 255 256 256 255 255 255 255 254 253 252 252 251 250 249 249 249 250 250 250 249 249 249 250 250 249 248 248 250 253 255 257 259 260 262 263 264 265 265 266 267 268 269 269 270 270 271 273
240 240 241 242 243 243 243 243 243 243 244 244 244 243 242 242 242 241 241 242 243 245 247 248 249 250 251 252 253 255 255 255 255 256 257 258 258 259 259 260 260 260 259 259 259 259 258 257 256 254 254 253 253 252 251 250 250 250 250 251 251 251 251 251 251 251 251 251 252 253 255 256 257 259 260 261 262 263 264 265 266 267 268 267 265 264 264
241 241 241 242 242 243 242 243 243 243 244 245 245 244 244 243 243 243 243 244 245 246 247 249 250 251 252 253 255 257 259 260 260 261 261 261 261 261 262 262 263 263 263 263 263 262 261 260 258 257 256 255 255 255 254 253 252 251 251 251 252 252 253 253 253 252 252 252 252 252 252 253 254 254 255 257 259 260 261 262 262 262 261 260 261 261 261
241 241 241 241 242 242 242 242 243 243 244 245 246 246 246 245 245 245 245 245 246 246 247 248 249 250 251 252 253 254 256 258 260 260 261 262 263 264 264 264 265 265 265 265 265 264 264 263 262 260 259 258 257 256 255 255 254 254 253 252 252 253 253 254 254 253 253 253 252 252 252 252 252 253 254 254 256 257 258 258 259 260 260 262 263 263 264
240 241 243 243 242 242 242 242 243 244 244 245 246 248 248 248 248 247 247 248 248 248 249 249 250 251 252 253 253 252 252 253 255 257 259 261 262 263 263 264 264 264 265 267 268 268 267 266 265 264 263 262 260 258 257 256 256 256 255 255 254 253 253 254 254 254 254 254 254 253 253 253 253 254 254 254 254 255 256 256 258 259 260 261 262 263 265
240 241 243 244 243 242 242 243 243 244 245 246 246 247 248 249 250 250 249 250 250 251 251 251 251 252 253 254 255 255 254 254 254 256 256 257 257 258 258 259 261 263 266 267 267 266 267 267 267 267 265 264 263 262 262 261 260 259 258 257 256 255 255 254 254 254 254 254 255 255 255 255 255 256 256 256 256 256 256 257 257 258 259 260 261 263 264
241 241 243 244 245 244 244 243 243 244 246 247 247 246 247 248 249 250 250 250 251 252 253 253 252 253 253 255 256 256 256 256 256 257 257 257 257 257 257 257 258 261 263 263 262 263 264 264 264 265 266 266 267 267 267 266 265 263 261 260 258 257 257 256 256 256 255 255 256 256 256 256 257 257 257 258 258 259 259 259 259 260 260 261 262 263 264
241 242 243 244 245 246 246 245 244 244 245 246 248 248 248 247 248 248 249 250 251 252 254 254 254 254 255 256 258 257 256 255 255 256 256 257 257 258 258 258 258 259 259 258 258 259 260 260 260 262 265 267 269 270 269 269 268 268 267 265 263 260 259 258 258 258 257 257 257 258 258 258 258 258 259 259 259 260 260 261 261 262 262 263 263 264 265
240 241 241 242 243 244 245 247 247 247 247 247 248 249 249 249 249 248 248 249 250 252 253 254 255 256 256 257 258 258 256 256 256 256 256 257 257 257 258 259 259 259 258 258 257 257 257 258 259 261 264 266 268 269 269 269 269 269 269 268 267 266 264 263 262 261 261 261 260 260 260 260 260 260 260 260 260 260 261 261 262 262 263 263 263 264 265
240 240 240 240 241 242 243 245 247 248 249 250 249 249 249 249 249 249 249 250 251 252 253 254 255 256 256 256 257 257 257 257 257 257 257 257 257 257 257 257 257 258 258 259 259 259 259 259 259 260 262 264 265 265 265 266 267 268 268 267 267 267 266 266 264 264 263 263 263 262 262 262 262 262 263 262 262 262 262 262 263 263 263 263 264 264 264
240 241 241 241 241 241 242 243 245 246 247 248 250 251 251 250 250 249 248 249 250 252 253 254 254 255 255 254 255 256 256 256 256 256 256 256 257 257 257 257 258 258 258 259 261 262 263 263 262 262 263 264 264 263 263 262 263 264 265 266 266 266 266 266 266 265 265 265 265 265 264 263 263 263 263 264 264 264 264 264 264 264 264 264 264 264 264
240 241 242 243 243 243 242 243 244 245 246 246 247 248 250 251 252 252 251 249 249 250 251 252 253 254 255 255 255 255 256 257 257 257 257 257 257 258 258 259 259 259 260 260 261 262 263 264 265 265 266 266 265 265 264 263 262 262 262 263 264 264 265 265 266 266 266 266 266 266 266 266 265 264 264 264 264 265 265 265 265 265 265 265 265 265 265
240 241 242 244 245 245 245 244 245 246 247 246 246 247 248 249 251 253 253 254 253 252 252 252 253 254 255 256 257 257 258 259 260 260 260 260 260 260 260 260 261 261 261 261 262 262 263 264 265 265 266 266 266 266 265 265 264 263 263 263 263 264 264 264 265 265 265 265 265 265 265 265 265 265 265 265 266 266 266 266 266 266 266 267 267 267 267
241 241 243 244 245 245 246 246 246 247 248 248 248 248 248 249 250 252 253 255 256 256 256 257 257 257 258 258 258 259 260 260 261 261 261 261 261 261 261 262 262 262 262 262 262 262 262 263 263 264 265 265 265 266 265 265 264 264 264 264 264 264 264 264 265 265 265 265 265 265 265 265 265 265 265 266 266 266 267 267 267 268 268 268 269 269 269
242 243 244 245 245 245 246 246 246 247 249 249 249 249 249 250 251 252 253 254 255 256 257 257 258 259 259 260 260 260 260 261 261 261 262 262 262 262 262 262 262 262 262 262 262 263 263 263 263 264 264 265 265 265 265 265 265 264 264 264 264 264 265 265 265 265 265 265 265 265 265 265 265 266 265 265 266 266 267 267 268 268 268 268 268 269 269
245 245 246 247 247 247 248 248 247 248 248 249 250 250 250 250 250 251 252 253 254 255 255 256 256 257 258 259 259 260 260 260 261 261 262 262 262 263 263 263 263 263 263 263 263 264 264 264 264 265 265 265 265 265 266 266 265 265 265 264 264 264 265 265 265 265 265 265 265 265 265 265 265 265 266 265 266 266 266 266 267 268 268 268 268 268 269
245 245 246 247 248 249 249 250 250 250 250 250 250 251 251 251 252 252 253 253 254 254 255 256 256 257 257 258 259 259 260 260 261 261 262 262 262 263 263 263 263 263 264 264 264 264 265 265 265 265 265 265 266 266 266 266 266 266 266 266 265 265 265 265 265 266 266 266 266 266 266 266 265 265 265 265 266 266 266 265 266 266 267 268 268 268 269
245 246 246 247 247 248 249 250 250 251 251 252 252 252 252 252 253 253 254 254 255 256 256 257 258 258 259 259 260 260 260 261 261 261 262 262 263 263 263 263 264 264 264 265 265 265 265 266 266 266 266 267 267 267 267 267 267 267 267 267 267 267 267 267 267 266 266 266 266 266 265 265 265 265 265 265 265 265 265 265 265 265 266 268 268 269 269
247 247 248 248 249 249 250 250 251 252 252 252 253 253 254 254 254 254 254 255 255 256 257 257 258 259 259 260 261 261 261 261 262 262 263 263 263 264 264 265 265 265 265 266 266 266 266 267 267 267 267 268 268 268 268 268 268 268 268 268 268 268 268 268 268 267 267 267 266 266 266 266 265 265 265 264 264 263 264 265 265 265 265 266 268 268 269
248 248 248 248 249 250 250 251 251 252 252 253 253 253 254 254 254 255 255 255 256 256 257 257 258 259 259 260 261 261 262 262 263 263 264 264 265 265 265 265 266 266 266 266 266 267 267 267 267 267 267 267 267 268 268 268 268 268 268 268 269 269 269 268 268 268 268 268 268 267 267 266 265 265 265 264 263 263 263 263 264 264 265 265 266 266 266
248 249 249 249 249 250 250 251 251 252 253 253 253 254 254 255 255 255 256 256 257 257 257 258 259 259 259 260 260 261 262 263 263 263 264 264 265 265 265 266 266 266 266 267 267 267 267 267 267 267 267 267 267 267 268 268 268 269 269 269 269 269 269 269 269 268 268 268 267 266 265 265 265 265 265 265 264 263 263 263 263 263 264 265 265 264 264
249 249 249 250 250 251 251 252 252 253 254 254 255 255 255 256 256 257 257 257 258 258 258 259 259 259 260 260 261 261 262 263 263 264 264 265 265 265 266 266 266 267 267 267 267 267 267 268 268 268 268 268 269 269 270 271 271 271 271 270 269 269 268 268 268 267 267 266 266 265 264 264 264 263 264 264 264 263 263 263 263 262 262 263 264 264 264
251 251 251 252 252 252 252 253 253 254 254 255 255 256 256 256 257 257 258 258 258 259 259 259 259 260 260 261 261 261 262 263 263 264 264 265 265 265 266 266 267 267 267 267 267 268 268 268 268 269 270 271 271 272 272 272 271 271 271 270 269 268 267 266 266 266 266 265 265 265 265 264 264 263 263 263 263 262 261 260 261 261 260 261 262 263 263
253 253 254 254 254 254 254 254 254 255 255 255 256 256 257 257 258 258 258 259 259 259 260 260 260 261 261 262 262 262 263 263 263 263 263 264 264 265 265 266 266 266 266 267 267 267 268 269 269 271 272 272 273 273 272 272 271 271 270 270 269 268 267 266 265 265 265 265 265 265 266 266 266 265 264 264 264 264 262 259 259 260 260 259 259 260 261
254 254 255 256 256 256 256 256 257 257 257 257 258 258 258 258 259 259 259 259 260 260 260 261 261 262 262 263 263 263 263 264 264 264 264 264 265 265 265 265 266 266 266 267 267 268 269 270 271 272 272 273 272 272 272 272 272 271 270 270 269 268 267 266 265 265 264 264 265 266 267 268 267 267 266 266 266 265 264 261 259 259 260 259 258 257 258
255 255 256 257 257 258 258 258 258 259 259 259 259 260 260 260 260 260 260 261 261 261 261 262 262 262 263 263 264 264 264 264 264 265 265 266 266 266 266 266 266 267 267 268 268 269 270 272 272 273 273 272 272 272 271 271 270 270 269 269 268 268 267 267 266 266 265 266 266 267 267 267 267 266 266 266 266 265 264 262 260 258 259 259 259 258 258
257 257 257 258 258 259 259 259 259 260 260 260 260 260 260 261 261 261 261 262 262 262 263 263 263 264 264 264 264 264 264 264 265 265 265 265 265 265 266 266 266 267 268 269 270 271 272 272 273 273 272 272 271 270 269 269 268 268 268 267 267 267 266 266 266 266 266 267 267 267 266 266 266 266 266 265 265 264 264 263 262 261 259 259 259 259 259
259 258 258 259 259 259 260 261 261 261 261 261 261 261 261 261 261 262 262 262 263 263 263 264 264 264 264 264 264 265 265 265 265 265 265 265 265 265 266 266 267 268 269 271 272 273 273 274 274 273 272 272 271 270 269 269 268 268 267 266 266 266 266 265 265 265 266 266 266 266 265 265 265 265 265 264 264 265 265 265 264 263 262 260 259 258 258
260 259 258 259 260 260 261 261 262 262 262 262 262 262 262 262 263 263 263 263 264 264 264 265 265 265 265 265 265 265 266 266 266 266 265 266 266 266 267 268 269 270 271 272 273 273 274 274 273 273 272 272 271 271 270 270 269 268 267 267 266 266 266 265 265 264 264 265 265 265 264 264 264 264 264 264 264 263 263 264 263 262 261 260 259 258 257
259 259 259 259 260 260 261 261 261 262 262 262 262 263 263 263 264 264 264 265 265 265 266 266 266 266 266 266 267 267 267 266 266 266 266 266 267 268 269 270 271 272 273 274 274 274 274 274 273 272 272 271 271 271 271 270 269 269 268 268 267 267 266 266 265 265 265 265 265 265 265 264 264 263 263 263 262 261 261 261 261 261 260 259 259 258 257
262 261 261 261 261 261 261 262 262 262 262 263 263 263 264 264 265 265 266 266 267 267 267 267 268 268 268 268 268 268 268 267 267 267 268 269 269 270 271 272 274 275 275 276 276 276 276 275 274 273 273 272 272 272 272 271 270 269 269 268 267 267 266 265 264 264 264 264 264 265 264 264 263 263 263 262 262 261 260 259 259 260 260 260 259 258 258
267 266 265 264 264 265 265 265 265 265 265 265 265 266 266 266 267 267 268 268 268 269 269 269 269 269 270 270 269 269 269 269 269 269 270 270 271 272 274 275 276 276 277 277 277 277 277 276 276 275 274 274 274 273 273 273 272 271 270 269 268 267 266 265 264 264 263 263 263 263 263 263 263 263 263 262 261 260 260 259 259 259 259 259 260 260 260
270 270 269 268 268 268 268 268 268 268 268 268 268 268 269 269 269 269 269 269 270 270 270 270 270 271 271 270 270 270 270 270 270 271 271 272 273 274 275 276 277 277 278 278 279 278 278 277 277 276 276 276 276 276 275 275 274 274 272 271 270 269 268 267 266 265 264 264 263 263 263 263 263 262 261 261 260 260 259 258 258 258 258 258 259 259 259
274 272 271 271 271 271 271 271 270 270 270 270 270 271 271 271 271 271 271 271 271 271 271 271 272 272 271 271 270 270 271 271 271 272 273 273 275 276 277 277 278 278 279 279 279 279 279 279 279 278 278 277 277 277 277 276 276 275 274 273 272 270 269 268 267 266 265 265 264 264 263 263 262 261 261 260 260 259 258 257 257 256 256 257 257 257 257
276 274 273 273 272 272 273 273 273 273 273 273 273 273 273 273 273 272 272 272 272 272 272 272 272 272 272 271 271 271 271 272 272 273 274 275 276 277 277 278 279 279 280 280 280 279 280 280 280 280 280 279 278 277 276 276 276 275 275 274 273 272 270 269 268 267 266 265 264 263 263 262 262 261 260 260 259 258 257 256 256 255 254 254 254 254 254
278 276 275 275 274 274 275 275 276 277 277 277 276 275 275 275 275 274 274 273 273 273 273 273 273 273 272 271 271 271 272 272 273 273 274 275 276 277 278 279 280 280 280 280 280 279 280 281 281 281 281 280 279 277 276 275 274 274 273 273 273 272 271 270 268 267 266 265 264 263 262 261 261 260 260 259 258 257 256 255 254 253 253 252 252 251 251
280 279 278 277 277 277 276 277 277 278 278 278 278 278 277 277 276 276 275 274 273 273 273 273 273 272 271 271 271 271 271 272 272 273 274 275 276 277 278 279 280 281 280 280 280 280 280 281 281 281 281 280 279 277 276 274 273 272 271 270 270 270 269 269 268 266 265 264 263 262 261 261 260 259 258 257 256 255 254 253 252 251 250 249 249 248 248
282 281 281 280 279 278 278 278 278 278 278 278 278 278 278 278 277 277 276 275 274 273 273 273 272 272 270 270 270 270 270 271 272 273 274 275 276 277 278 279 280 280 280 280 280 280 281 281 281 281 281 280 279 278 276 275 273 271 270 269 268 267 267 266 265 264 263 262 261 260 260 259 259 258 257 256 254 252 251 250 249 248 247 246 246 245 245
283 282 281 281 280 280 279 279 279 279 278 279 279 279 279 278 278 278 277 276 275 274 273 272 272 271 270 269 269 269 270 271 272 273 274 275 275 276 278 279 279 279 279 279 280 281 281 282 281 281 280 279 278 277 276 276 274 272 270 269 267 265 264 263 263 262 260 259 258 257 256 256 255 254 253 252 251 249 248 247 245 244 243 243 242 242 242
286 284 283 282 281 281 281 280 279 279 279 279 280 280 280 280 279 279 278 277 276 275 274 273 272 271 270 269 269 269 270 270 271 272 273 274 275 276 276 277 278 278 278 279 279 281 282 282 281 281 280 279 277 276 276 275 274 272 271 269 267 265 263 262 261 261 260 258 257 255 254 253 253 252 250 248 247 246 245 244 243 242 240 240 239 239 239
288 287 285 283 283 282 282 281 280 280 280 281 281 281 281 281 281 280 280 278 277 276 276 275 274 272 271 270 269 269 270 270 271 271 272 273 274 275 275 276 277 277 278 278 278 279 280 281 281 281 280 279 277 276 276 275 273 271 269 267 264 263 262 261 260 260 260 259 257 254 252 251 249 249 248 247 245 243 242 242 241 239 238 237 237 236 236
289 288 287 285 285 284 284 283 282 282 282 282 282 282 282 282 283 283 282 280 279 278 277 277 276 275 273 271 270 270 269 270 270 270 271 271 273 273 274 275 276 276 277 277 276 277 278 279 279 279 279 279 278 276 276 275 274 272 269 266 264 262 262 261 261 259 259 258 257 255 252 249 247 246 245 245 244 242 241 240 238 237 236 235 235 234 234
288 288 287 287 286 285 284 284 283 283 283 283 283 283 283 283 284 284 284 283 281 280 279 278 277 276 275 273 271 270 269 269 269 269 270 270 271 271 272 273 274 275 275 276 276 276 277 277 277 277 278 278 277 276 276 275 273 271 270 268 266 263 262 262 261 260 259 257 256 255 253 250 247 245 243 242 242 241 240 238 236 234 233 232 232 232 233
288 288 288 288 287 285 283 283 283 283 283 283 283 283 283 284 284 284 284 284 284 282 280 278 277 276 275 274 273 271 270 269 269 269 269 269 270 270 271 272 273 273 274 274 275 275 275 276 276 276 276 276 275 274 274 274 273 271 270 269 267 265 263 262 262 261 260 259 257 255 254 251 248 245 244 243 241 240 238 237 235 234 232 230 230 229 230
290 290 289 289 288 285 283 282 282 283 283 283 283 283 283 283 284 284 284 284 284 283 282 279 278 277 276 275 274 272 271 270 269 268 268 269 269 270 270 271 272 273 273 273 273 274 274 274 274 274 275 275 274 273 272 272 272 272 271 270 268 266 265 263 261 261 260 260 258 257 255 252 249 246 244 243 243 241 239 237 235 234 233 232 230 229 228
290 290 289 289 289 287 285 284 283 283 283 282 282 282 283 283 283 283 283 283 283 283 283 283 281 278 276 275 274 273 272 270 269 268 268 267 268 269 269 270 271 272 272 272 272 272 272 273 273 273 273 273 274 273 273 271 270 270 269 269 268 267 266 264 262 260 258 258 258 257 256 254 252 249 246 244 243 242 241 239 237 236 235 234 233 232 231
289 289 289 289 288 288 287 286 284 283 283 282 282 282 283 283 282 282 282 282 282 283 283 283 282 280 277 275 273 273 272 271 270 269 268 267 267 267 268 269 270 271 272 272 272 271 271 271 272 272 272 272 272 273 273 272 271 269 268 267 267 266 266 264 262 260 257 256 255 255 255 254 254 252 250 247 245 243 242 241 239 238 237 236 236 236 235
289 289 288 288 287 287 287 287 286 285 283 282 282 283 283 282 282 282 282 282 282 282 282 282 281 280 278 276 274 273 272 271 271 269 268 267 267 266 266 267 267 268 269 270 271 271 270 270 270 270 271 272 272 271 271 271 271 270 269 267 266 265 264 264 263 261 260 257 256 254 254 254 254 254 254 252 250 248 246 244 243 241 240 240 239 239 239
290 289 288 288 287 287 287 287 287 286 284 282 282 282 283 283 282 282 281 281 281 281 281 280 280 280 280 278 276 273 272 271 271 270 269 268 267 266 265 265 265 266 266 267 268 269 269 268 268 268 268 269 270 270 270 270 270 269 269 268 266 264 262 261 261 260 260 259 258 257 256 255 255 255 255 255 255 254 252 250 249 247 245 244 243 242 241